Location: Newark
(49.3000°N, 9.4667°E)
Time: 16:34:02
(UTC+00:00)

S-56A Canister/Altair - Pass Details

Date: 23 May 2019
Orbit: 633 x 2499 km, 38.9° (Epoch: 16 June)

Event Time Altitude Azimuth Distance (km) Brightness Sun altitude
Exits shadow 00:23:42 21° 158° (SSE) 2,282 9.5 -18.7°
Maximum altitude 00:24:57 22° 144° (SE) 2,328 9.6 -18.7°
Drops below altitude 10° 00:31:11 10° 99° (E) 3,621 11.1 -18.4°
Sets 00:35:44 0° 87° (E) 4,979 12.0 -18.1°
